Virtual Norwegian is not affiliated with Norwegian Air Shuttle in any way.
If you are looking for the real "Norwegian", or you wish to book Norwegian flights, please visit Norwegian.com


We use cookies to ensure you get the best experience on our website.   ACCEPT

ENML - MOL - Molde (Aro)

General Info Alternate Airport
ICAO: ENML Elevation: 10 ft ICAO: ENAL
IATA: MOL Country: Norway IATA: AES
City: Molde Charts: Log in to view charts City: Alesund
Name: Aro Hub: No Name Vigra
General Info
ICAO: ENML
IATA: MOL
City: Molde
Name: Aro
Elevation: 10 ft
Country: Norway
Charts: Log in to view charts
Hub: No
 
Alternate Airport
ICAO: ENAL
IATA: AES
City: Alesund
Name: Vigra

Weather
211350Z 28007KT 230V320 9999 -RA FEW012 BKN042 08/05 Q1007
Weather
211350Z 28007KT 230V320 9999 -RA FEW012 BKN042 08/05 Q1007

Runway Info
07
Length ILS/LOC Course
2220 m 109.75 072
25
Length ILS/LOC Course
2220 m 109.10 257

NOTAMs
NOTAMs currently unavailable.
NOTAMs
NOTAMs currently unavailable

Route map
Airport
Airport (hub)